Wind_Speed
25 24 23 21 20 17 16 18 20 20 19 18 16 13 11 9 8 8 7 6 5 5 5 5 6 7 7 8 7 7 6 6 5 5 4 4 4 4 4 5 6 7 8 9 9 9 9 9 7
26 25 24 22 20 17 18 21 23 23 22 20 17 14 11 10 9 8 8 7 6 5 6 7 8 8 8 9 9 9 8 8 7 7 6 5 5 5 5 5 6 7 8 9 9 9 9 8 7
26 25 24 22 19 18 21 24 26 25 23 21 19 16 14 12 10 10 9 8 7 7 7 8 9 9 9 9 10 10 10 9 9 9 8 8 7 7 7 7 7 7 7 8 8 9 8 8 7
26 25 24 22 19 20 24 27 28 27 24 22 20 18 16 14 12 11 10 9 9 9 9 9 9 9 9 10 10 11 11 11 11 11 11 10 10 10 9 8 8 7 8 8 8 8 8 8 7
25 24 22 20 21 24 27 29 28 28 26 24 22 19 16 15 14 13 12 11 10 10 10 11 10 10 10 10 11 11 12 12 13 13 12 12 12 12 11 10 9 9 9 9 8 8 8 8 7
24 22 21 20 24 27 29 30 29 28 27 25 23 20 18 17 16 15 14 13 12 11 11 11 11 11 10 10 11 12 13 13 13 14 14 13 13 13 13 12 11 10 10 10 9 9 9 8 7
23 21 20 22 26 29 31 31 29 28 28 26 23 21 20 19 18 18 16 15 14 13 12 12 13 13 12 12 12 13 14 14 15 15 14 15 14 14 14 13 12 12 11 11 10 10 9 9 8
21 20 20 23 27 30 32 32 31 29 29 27 25 22 21 21 20 19 17 16 15 15 14 14 14 14 14 14 13 14 14 15 16 16 16 16 16 16 15 14 14 13 13 13 12 11 10 10 9
19 19 20 24 28 31 33 34 32 32 30 28 27 25 24 22 21 20 19 18 17 17 17 16 16 16 16 16 15 16 16 17 17 17 17 17 17 17 17 16 16 15 15 14 13 12 12 11 11
18 18 22 26 29 32 34 35 34 33 32 30 28 27 25 23 22 22 21 20 19 19 19 18 18 18 18 18 17 17 18 19 18 18 18 18 18 18 18 18 17 17 17 16 15 14 14 13 12
18 20 23 27 30 32 34 35 35 34 33 31 30 29 27 25 25 23 22 21 21 21 19 20 19 19 20 20 20 20 20 20 21 21 20 20 20 19 20 20 20 19 18 18 17 16 15 15 14
18 21 23 26 29 31 33 34 33 33 33 32 32 30 28 27 26 25 24 23 23 23 22 21 22 22 22 22 22 22 23 22 23 24 24 23 22 22 21 21 21 21 20 20 19 19 18 17 16
18 20 22 24 26 29 30 31 32 31 31 31 30 29 28 27 27 26 26 25 24 25 24 24 24 24 24 24 24 23 24 26 25 26 26 25 24 23 23 22 22 22 22 21 21 21 19 19 18
16 18 20 22 24 26 28 28 28 29 29 29 28 27 27 27 26 26 26 26 26 27 27 26 26 26 27 26 26 26 26 28 28 28 28 28 27 25 24 25 24 23 23 23 23 22 21 21 20
15 17 19 21 23 24 24 25 26 27 27 26 26 26 26 26 26 26 26 26 26 26 27 27 27 27 27 27 27 27 29 29 30 29 29 29 28 28 26 26 25 25 25 25 25 24 22 21 21
14 16 19 21 23 24 23 23 24 24 24 23 23 23 23 23 23 24 25 25 26 27 27 28 28 28 28 28 28 29 29 30 29 30 30 30 30 29 28 28 27 27 27 27 26 25 24 23 23
14 16 18 20 21 22 22 21 21 21 20 20 21 21 21 21 22 23 25 26 27 27 28 28 28 28 29 29 30 29 29 30 30 31 32 31 30 31 31 30 30 30 30 29 28 27 26 26 25
15 16 17 18 18 19 18 18 18 19 19 20 20 21 21 21 22 24 25 26 27 28 29 29 29 29 30 30 30 30 31 32 32 31 31 30 30 31 33 33 32 33 32 31 31 30 28 28 27
15 15 16 16 17 17 17 17 18 18 19 20 20 20 21 22 23 24 25 26 27 28 29 29 30 30 30 31 31 32 32 33 33 32 32 32 32 32 32 33 33 34 34 32 32 32 31 30 30
15 15 15 16 16 17 17 18 18 19 20 21 22 22 23 24 25 25 24 25 25 25 26 27 28 29 30 29 30 31 31 31 31 32 32 32 32 31 32 32 31 33 33 33 33 32 32 31 31
15 14 15 15 16 17 18 18 18 19 21 21 22 22 23 23 25 25 25 25 25 25 25 26 27 27 28 28 28 29 30 31 29 31 32 31 32 31 31 31 30 31 32 33 35 35 35 34 33
14 14 14 15 16 16 17 17 17 18 19 20 20 21 22 23 24 24 24 24 24 24 24 24 24 25 26 26 26 26 27 28 30 29 29 28 27 27 29 30 31 31 30 31 33 34 34 34 33
13 13 13 13 13 14 15 17 16 18 19 19 20 21 23 22 22 23 23 23 22 22 21 21 21 22 23 24 25 25 26 26 27 28 28 27 26 26 28 29 29 30 30 30 30 32 32 33 33
13 13 13 12 12 13 14 15 14 16 17 18 20 21 21 21 21 21 21 21 21 20 20 20 20 21 22 22 22 23 24 25 26 26 27 27 26 26 27 28 28 28 28 29 29 30 31 32 33
13 12 12 12 12 12 13 14 14 15 16 17 19 19 19 18 19 19 19 19 19 18 19 20 20 20 20 20 20 20 21 22 24 25 26 26 26 26 26 27 27 25 26 26 27 29 30 30 31
13 12 12 12 12 12 12 13 13 14 15 16 17 17 16 17 17 17 17 17 17 17 18 19 19 20 20 19 19 19 20 20 22 23 24 24 24 24 24 24 24 24 24 25 26 27 28 29 30
12 11 12 13 12 12 11 11 12 14 15 16 16 16 15 16 16 17 17 17 16 17 17 18 18 19 20 20 19 19 19 20 21 22 23 23 23 23 23 24 24 24 24 24 24 25 26 28 29
11 11 11 12 13 12 11 12 13 13 14 16 15 15 16 16 16 16 16 16 16 16 17 17 17 18 19 19 19 19 19 20 20 21 22 22 22 23 23 23 23 22 23 23 24 25 26 27 28
12 12 12 13 14 15 14 12 14 15 16 16 16 15 16 16 16 15 15 16 16 16 16 17 17 17 18 19 19 20 20 19 20 21 21 21 22 23 23 23 22 22 22 22 23 24 25 25 26
13 13 14 14 15 15 16 14 15 17 18 18 17 17 18 18 17 17 17 18 17 17 17 17 18 18 18 19 20 20 20 20 20 20 20 21 21 21 22 22 22 22 22 21 22 23 23 24 24
Wind_Direction
252 251 249 246 244 239 231 228 230 230 229 233 238 244 255 266 286 304 308 304 296 292 279 268 261 255 247 244 239 232 223 221 224 224 232 244 254 272 291 302 309 316 319 317 318 319 319 319 317
250 248 246 243 240 232 222 223 225 229 231 233 235 239 248 265 282 300 303 297 287 287 277 263 261 260 250 243 241 238 234 227 227 229 233 243 252 260 274 288 295 303 310 310 311 314 314 313 310
248 246 243 241 235 222 216 220 224 229 232 233 235 239 245 256 275 289 297 291 282 278 270 260 257 257 253 245 240 239 238 235 234 234 235 241 250 256 262 272 280 288 297 301 303 308 308 306 303
246 244 242 237 225 214 214 218 222 226 231 234 237 241 250 258 271 281 289 285 279 273 265 259 253 251 253 251 244 241 239 237 238 239 241 242 248 253 259 266 272 278 287 292 296 299 300 298 295
245 242 239 231 215 211 213 218 222 226 230 235 239 244 254 262 269 278 283 282 276 268 262 256 248 249 250 250 248 246 243 241 240 241 243 245 249 253 255 261 268 272 278 283 288 291 289 289 287
244 240 235 222 209 210 213 218 221 225 230 235 242 246 253 261 269 277 280 277 272 266 260 253 252 252 249 250 248 245 244 243 243 245 247 247 249 253 256 257 261 266 271 275 279 282 281 280 277
243 237 228 215 208 209 213 218 220 224 229 233 239 247 254 262 269 277 279 278 273 266 261 257 255 253 251 250 249 247 244 243 244 246 248 249 249 252 254 255 258 261 265 269 272 274 275 274 271
240 234 222 212 209 210 214 218 221 225 230 236 240 247 254 261 269 276 279 279 274 269 264 259 256 256 258 253 250 248 245 244 244 246 249 252 251 252 253 254 255 257 259 262 266 268 270 269 267
235 226 216 210 209 211 215 218 222 228 233 238 243 248 253 260 268 275 277 276 273 269 266 262 257 257 261 261 259 251 249 247 246 246 249 252 252 251 250 251 253 256 257 258 260 263 264 263 262
230 220 213 211 211 213 216 220 225 228 234 240 246 251 256 261 267 273 274 275 272 270 266 264 259 260 260 260 258 254 251 249 247 247 247 249 250 249 249 249 251 252 254 255 255 257 259 259 258
223 215 214 213 213 215 218 223 228 233 238 244 249 254 257 262 266 270 272 272 269 268 265 264 261 262 261 257 254 254 253 251 249 249 247 248 250 249 249 250 249 251 253 253 252 253 255 255 255
216 213 214 215 216 218 221 225 231 237 243 248 253 255 257 259 263 267 270 270 269 267 267 266 262 261 259 257 256 256 254 253 252 250 249 248 248 249 248 250 249 250 251 252 252 251 252 251 252
214 215 216 218 219 221 225 229 234 240 245 251 254 257 259 261 264 266 268 270 269 269 268 266 263 261 260 260 258 255 255 253 253 253 250 250 251 252 250 251 250 250 249 250 251 250 252 250 249
216 218 218 220 222 225 229 235 239 244 249 253 256 258 262 264 267 269 271 270 269 269 268 266 264 263 262 262 260 258 257 255 254 252 251 251 252 252 251 250 250 249 248 248 248 249 250 249 248
215 217 219 222 226 229 235 240 245 248 252 256 258 260 262 266 268 269 271 272 270 268 268 268 265 265 264 262 262 262 260 258 256 254 253 251 251 251 252 251 250 249 248 248 248 248 248 247 248
213 216 221 226 232 236 240 243 248 252 255 256 258 261 263 266 269 270 270 270 269 268 267 267 266 266 264 262 260 260 260 256 256 255 254 252 252 252 253 253 251 250 248 247 247 248 248 247 248
214 216 222 227 234 239 242 245 250 254 256 259 262 263 265 268 269 270 271 271 268 267 267 266 266 265 265 264 262 259 260 257 255 252 252 251 252 252 252 252 252 252 250 248 247 247 249 249 249
213 217 222 229 236 242 246 248 250 256 261 265 268 269 270 271 273 274 275 274 271 270 268 266 266 265 264 264 263 261 260 257 254 250 251 251 253 254 252 251 251 251 251 250 249 248 248 249 250
218 220 224 232 239 244 249 253 254 258 265 269 272 273 273 275 275 277 278 277 274 271 268 265 264 265 264 263 263 261 259 259 256 252 251 251 253 257 255 252 250 250 250 250 249 248 248 248 250
221 223 227 237 247 251 255 260 264 266 270 274 277 279 280 280 280 279 279 279 275 274 271 267 267 267 267 265 263 260 260 259 256 251 250 248 250 255 255 253 252 249 249 249 249 248 247 247 249
229 230 234 243 252 260 264 269 273 276 279 280 282 283 283 282 281 280 280 278 276 275 274 272 270 269 267 265 262 260 258 258 255 252 251 249 249 254 255 254 253 251 250 248 248 249 248 246 248
236 240 245 252 257 265 274 279 281 285 287 286 287 287 287 285 283 281 281 278 276 276 275 272 273 271 267 264 262 260 258 257 254 252 251 251 249 251 253 252 250 250 250 248 247 247 246 243 246
242 247 252 258 267 274 281 286 290 292 292 291 290 290 290 288 285 284 283 281 277 275 275 273 273 272 269 266 262 261 260 256 252 249 248 248 251 254 253 252 250 249 248 245 243 243 242 241 245
249 255 257 265 276 281 287 293 300 298 295 295 295 294 291 287 286 286 284 282 278 276 274 274 273 272 271 268 265 263 260 255 249 247 247 249 251 253 253 252 252 249 245 246 245 242 241 242 243
258 262 263 273 281 288 292 299 305 302 301 301 301 299 293 287 285 286 285 281 278 275 273 272 272 270 269 267 267 264 260 255 251 247 247 245 246 251 254 252 250 248 247 246 244 242 240 240 241
263 267 272 281 288 290 295 304 308 306 306 308 306 302 297 291 288 288 287 284 279 274 273 272 272 269 265 265 265 265 261 257 253 249 249 247 247 248 248 250 250 249 249 246 245 243 240 240 241
263 267 275 283 290 295 302 310 312 311 312 314 311 305 300 296 293 291 289 287 281 276 274 273 271 267 264 263 263 263 262 257 253 249 248 248 247 248 248 250 250 248 248 248 247 242 241 241 240
266 269 277 285 295 300 304 313 316 314 314 315 315 310 307 301 295 292 289 288 285 280 277 275 273 268 263 262 262 260 259 257 254 249 246 244 246 248 247 249 249 249 248 249 249 247 246 244 242
268 272 278 286 294 300 305 314 315 317 317 316 316 313 311 307 299 293 288 288 287 283 279 276 274 270 265 260 258 256 255 254 251 247 244 244 245 245 245 247 249 249 248 249 246 244 242 241 242
272 276 281 285 291 297 303 312 311 313 314 314 313 311 308 306 301 294 290 289 287 284 279 276 274 269 265 258 255 254 253 251 248 245 242 242 242 243 244 245 247 245 243 243 242 241 242 242 243
Height
5853 5855 5857 5859 5861 5863 5863 5863 5863 5864 5865 5866 5867 5869 5871 5873 5876 5879 5878 5877 5877 5877 5878 5878 5879 5880 5881 5882 5883 5884 5885 5887 5888 5889 5890 5891 5893 5894 5895 5896 5897 5898 5898 5899 5899 5899 5899 5899 5899
5849 5851 5854 5855 5857 5860 5861 5860 5860 5860 5862 5863 5865 5867 5868 5870 5872 5874 5874 5875 5875 5876 5876 5877 5878 5879 5879 5880 5881 5882 5883 5885 5886 5888 5889 5890 5891 5892 5894 5895 5896 5897 5897 5898 5898 5898 5898 5898 5898
5845 5847 5850 5852 5854 5856 5856 5856 5856 5857 5859 5861 5863 5865 5867 5868 5870 5872 5873 5873 5873 5874 5874 5875 5876 5877 5878 5878 5879 5880 5881 5883 5884 5886 5887 5888 5890 5891 5892 5893 5894 5895 5896 5896 5897 5897 5897 5897 5897
5841 5844 5846 5849 5851 5852 5852 5852 5853 5855 5857 5859 5861 5863 5865 5867 5868 5869 5870 5871 5871 5872 5872 5873 5874 5874 5875 5876 5877 5878 5879 5880 5882 5883 5884 5886 5887 5889 5890 5891 5892 5893 5894 5894 5895 5895 5896 5896 5896
5837 5840 5842 5845 5847 5847 5848 5848 5850 5852 5854 5857 5858 5861 5862 5864 5865 5866 5868 5868 5869 5870 5870 5871 5871 5872 5873 5874 5875 5876 5877 5878 5879 5881 5882 5883 5885 5886 5887 5888 5889 5890 5892 5892 5893 5894 5894 5894 5895
5833 5836 5839 5841 5842 5843 5843 5845 5847 5849 5851 5854 5856 5858 5860 5861 5862 5863 5864 5865 5866 5867 5868 5868 5869 5869 5870 5871 5872 5873 5874 5876 5877 5878 5880 5881 5882 5884 5885 5886 5887 5888 5889 5890 5891 5891 5892 5893 5893
5830 5832 5834 5837 5837 5839 5840 5842 5844 5846 5848 5851 5853 5855 5857 5858 5859 5860 5861 5862 5863 5864 5865 5865 5866 5867 5868 5869 5870 5870 5871 5873 5874 5875 5877 5878 5879 5881 5882 5883 5884 5885 5886 5887 5888 5889 5890 5891 5891
5825 5829 5830 5832 5833 5835 5837 5839 5841 5843 5845 5848 5850 5852 5854 5855 5856 5857 5858 5859 5859 5860 5861 5862 5863 5864 5864 5865 5866 5867 5869 5870 5871 5872 5874 5875 5876 5877 5879 5880 5881 5882 5883 5884 5885 5886 5887 5888 5889
5822 5825 5826 5828 5830 5832 5833 5835 5838 5840 5842 5844 5846 5848 5850 5851 5852 5853 5854 5855 5856 5857 5858 5859 5860 5860 5861 5862 5863 5864 5865 5866 5868 5869 5870 5872 5873 5874 5876 5877 5878 5879 5880 5881 5882 5883 5885 5886 5887
5818 5821 5822 5824 5826 5828 5830 5832 5834 5837 5839 5841 5842 5844 5846 5847 5848 5850 5850 5852 5852 5853 5854 5855 5855 5856 5857 5858 5859 5860 5861 5863 5864 5865 5867 5868 5869 5871 5872 5873 5875 5876 5877 5878 5879 5881 5882 5883 5884
5814 5817 5818 5820 5822 5824 5827 5829 5831 5834 5836 5838 5839 5841 5842 5843 5845 5846 5847 5847 5848 5849 5849 5851 5851 5852 5853 5854 5855 5856 5857 5858 5860 5861 5862 5864 5865 5867 5868 5869 5871 5872 5873 5875 5876 5877 5878 5880 5881
5811 5813 5814 5817 5819 5821 5824 5827 5829 5831 5833 5835 5836 5837 5838 5839 5841 5842 5843 5843 5844 5845 5845 5846 5847 5847 5848 5849 5850 5851 5852 5854 5855 5856 5858 5859 5860 5862 5863 5865 5867 5868 5870 5871 5872 5874 5875 5876 5878
5808 5810 5812 5814 5817 5819 5822 5824 5827 5828 5830 5831 5832 5833 5833 5835 5836 5837 5838 5839 5839 5840 5840 5841 5842 5842 5843 5843 5845 5846 5847 5848 5849 5851 5853 5854 5856 5857 5859 5860 5862 5864 5865 5866 5868 5869 5871 5872 5874
5807 5808 5811 5813 5815 5817 5819 5822 5824 5825 5827 5828 5828 5829 5829 5830 5831 5832 5833 5834 5834 5835 5835 5836 5836 5837 5837 5838 5839 5840 5841 5841 5843 5845 5847 5849 5851 5852 5854 5855 5857 5859 5860 5862 5863 5865 5866 5868 5870
5805 5807 5809 5811 5812 5814 5817 5820 5821 5822 5823 5823 5824 5824 5825 5825 5825 5826 5827 5828 5828 5829 5830 5830 5830 5831 5832 5832 5833 5834 5835 5836 5837 5838 5841 5843 5845 5847 5848 5850 5852 5854 5855 5857 5858 5860 5862 5864 5866
5803 5805 5807 5808 5809 5811 5815 5816 5817 5817 5818 5818 5819 5819 5820 5820 5820 5821 5821 5822 5822 5823 5823 5824 5824 5825 5825 5826 5827 5828 5828 5829 5830 5832 5834 5837 5839 5841 5842 5845 5847 5848 5849 5851 5853 5855 5857 5858 5860
5800 5802 5804 5806 5807 5808 5811 5812 5813 5813 5814 5814 5814 5815 5815 5815 5815 5815 5815 5816 5816 5816 5817 5817 5818 5818 5819 5819 5820 5821 5822 5823 5824 5825 5828 5830 5832 5834 5836 5838 5840 5841 5843 5845 5847 5849 5851 5853 5855
5798 5800 5801 5803 5804 5806 5807 5808 5809 5809 5810 5810 5810 5810 5810 5810 5810 5809 5809 5809 5809 5809 5810 5810 5811 5811 5811 5812 5812 5813 5815 5816 5817 5819 5821 5823 5825 5827 5829 5831 5833 5834 5836 5838 5841 5843 5845 5847 5849
5796 5798 5799 5801 5802 5803 5804 5805 5805 5805 5806 5806 5806 5805 5805 5804 5804 5804 5803 5802 5802 5802 5802 5802 5803 5804 5804 5805 5805 5806 5807 5808 5809 5811 5813 5815 5817 5819 5821 5823 5825 5827 5829 5832 5834 5836 5839 5841 5843
5794 5797 5798 5799 5799 5800 5800 5801 5801 5801 5801 5801 5800 5800 5800 5799 5798 5797 5796 5795 5795 5795 5795 5795 5796 5796 5797 5797 5798 5798 5799 5801 5802 5803 5805 5807 5809 5810 5812 5814 5816 5819 5821 5824 5827 5829 5832 5834 5836
5793 5795 5796 5796 5796 5797 5797 5798 5797 5797 5796 5796 5795 5794 5793 5792 5791 5790 5790 5789 5789 5789 5789 5789 5789 5789 5789 5790 5790 5791 5792 5794 5795 5796 5798 5799 5801 5803 5805 5807 5809 5811 5814 5816 5819 5822 5824 5827 5830
5792 5793 5793 5794 5794 5793 5794 5794 5794 5792 5791 5791 5790 5788 5787 5786 5785 5784 5783 5782 5782 5782 5782 5782 5782 5782 5782 5783 5783 5784 5785 5787 5788 5790 5791 5792 5794 5796 5798 5800 5802 5804 5806 5809 5811 5814 5817 5819 5822
5790 5791 5791 5791 5790 5791 5790 5790 5790 5788 5787 5786 5784 5783 5781 5780 5779 5778 5777 5776 5776 5775 5775 5775 5776 5776 5776 5776 5777 5777 5778 5780 5781 5783 5784 5786 5787 5789 5792 5794 5795 5797 5799 5801 5804 5807 5810 5813 5815
5788 5789 5789 5788 5788 5788 5788 5787 5786 5784 5783 5781 5780 5778 5776 5775 5773 5772 5771 5770 5770 5769 5769 5770 5770 5770 5770 5770 5770 5771 5772 5773 5775 5776 5778 5780 5781 5783 5785 5787 5788 5790 5792 5795 5797 5800 5803 5806 5809
5786 5787 5787 5786 5786 5786 5785 5783 5783 5781 5779 5778 5776 5773 5771 5770 5768 5767 5766 5765 5764 5764 5764 5764 5764 5764 5764 5764 5765 5765 5766 5767 5769 5770 5772 5774 5776 5777 5778 5780 5782 5783 5785 5788 5791 5793 5796 5798 5801
5784 5785 5785 5785 5784 5784 5782 5781 5781 5778 5776 5774 5771 5769 5767 5765 5764 5763 5761 5760 5760 5759 5759 5759 5759 5758 5758 5759 5759 5760 5760 5761 5763 5764 5766 5767 5769 5771 5772 5774 5776 5777 5779 5782 5785 5786 5789 5791 5794
5781 5781 5782 5782 5781 5781 5780 5779 5778 5775 5772 5770 5767 5765 5763 5762 5760 5758 5757 5756 5755 5755 5754 5754 5753 5753 5753 5753 5754 5754 5755 5755 5757 5758 5760 5761 5763 5765 5767 5769 5771 5772 5774 5776 5778 5780 5782 5785 5787
5779 5779 5779 5779 5778 5777 5777 5776 5775 5772 5770 5767 5765 5762 5760 5758 5756 5754 5753 5752 5751 5750 5749 5749 5748 5747 5747 5747 5748 5749 5749 5750 5751 5752 5754 5756 5757 5759 5761 5763 5765 5766 5768 5770 5772 5774 5776 5778 5781
5777 5777 5776 5776 5775 5774 5773 5776 5772 5769 5767 5764 5762 5759 5757 5755 5753 5751 5749 5748 5747 5746 5745 5744 5743 5743 5742 5742 5743 5743 5744 5744 5745 5747 5748 5750 5752 5753 5755 5757 5759 5760 5762 5764 5766 5768 5771 5773 5775
5774 5774 5773 5773 5773 5771 5770 5773 5768 5766 5763 5761 5759 5756 5754 5752 5749 5747 5746 5744 5743 5741 5740 5739 5738 5738 5737 5737 5738 5738 5738 5739 5740 5741 5743 5744 5746 5748 5750 5751 5753 5755 5757 5759 5761 5763 5765 5767 5769